Find Starlink 30924

NORAD ID: 58412 Int'l Des: 2023-180 Owner: SPXS Country: US Constellation: starlink operational
LEOCIRCULAR

当前视图

正在加载3D地球...

About Starlink 30924

Starlink 30924 (NORAD 58412) is a starlink constellation satellite (v2 mini) launched Nov 22, 2023 by SPXS of US. It operates in LEO, CIRCULAR orbit with a mass of 730.00 kg.

关于 Starlink 30924

正在加载描述...

即将过境

Passes for default location (London). Set your location on the main map for personalized predictions.

高度历史

Loading altitude history...

两行轨道根数

1 58412U 23180L 26175.25002315 .00056253 00000-0 10282-2 0 9999
2 58412 42.9968 12.5727 0017827 277.0750 295.0178 15.48395615 5900
Epoch: Jun 24, 2026 • Age: 10 hours

当前状态

高度 435.7 km
速度 7.65 km/s
星下点 42.46°N, 69.46°W
发射日期 Nov 22, 2023
运行时间 2.5 years
类型 internet

技术详情

分类 Payload
质量 730.00 kg
干质量 700.00 kg
总质量 730.00 kg
长度 0.30 m
直径 4.10 m
跨度 29.00 m
形状 Box + pan
制造商 SPXS
平台类型 Starlink V2M
阶段状态 In Orbit
所有者/国家 SPXS/US

Most Searched